Cork, Ireland

9:49 PM GMT on November 17, 2017 (GMT +0000)
Cork

Weather History for EICK - November, 2013

Change the Weather History Date:

Sunday, November 10, 2013

  Actual Average Record
Temperature  
Mean Temperature 47 °F -  
Max Temperature 53 °F 49 °F 57 °F (2002)
Min Temperature 41 °F 39 °F 35 °F (1996)
Degree Days  
Heating Degree Days 18    
Moisture  
Dew Point 46 °F    
Average Humidity 97    
Maximum Humidity 100    
Minimum Humidity 89    
Precipitation  
Precipitation 0.67 in 0.15 in - ()
Sea Level Pressure  
Sea Level Pressure 29.98 in    
Wind  
Wind Speed 7 mph ()    
Max Wind Speed 15 mph    
Max Gust Speed -    
Visibility 5.2 miles    
Events Rain    
Averages and records for this station are not official NWS values.
T = Trace of Precipitation, MM = Missing Value Source: Averaged Metar Reports

Daily Weather History Graph

Daily Weather History Graph

Search for Another Location

Airport or City:

Trip Planner

Search our weather history database for the weather conditions in past years. The results will help you decide how hot, cold, wet, or windy it might be!

Date:

Astronomy

Nov. 10, 2013 Rise Set
Actual Time 7:44 AM GMT 4:50 PM GMT
Civil Twilight 7:07 AM GMT 5:27 PM GMT
Nautical Twilight 6:27 AM GMT 6:07 PM GMT
Astronomical Twilight 5:47 AM GMT 6:46 PM GMT
Moon 1:35 PM GMT (11/10) No Moon Set
Length of Visible Light 10h 19m
Length of Day
9h 05m
First Quarter, 53% of the Moon is Illuminated
Nov 10
First Quarter
Nov 17
Full
Nov 25
Last Quarter
Dec 3
New
Dec 9
First Quarter

Hourly Weather History & Observations

Time (GMT) Temp. Windchill Dew Point Humidity Pressure Visibility Wind Dir Wind Speed Gust Speed Precip Events Conditions
12:00 AM 42 °F - 41 °F 94% 29.81 in 19 mi WNW 8.9 mph - -   Partly Cloudy
12:00 AM 42.8 °F 37.5 °F 41.0 °F 93% 29.77 in 6.2 mi WNW 9.2 mph - N/A   Scattered Clouds
12:30 AM 42.8 °F 37.5 °F 41.0 °F 93% 29.80 in 6.2 mi WNW 9.2 mph - N/A   Mostly Cloudy
1:00 AM 42.8 °F 38.6 °F 41.0 °F 93% 29.83 in 6.2 mi WNW 6.9 mph - N/A   Scattered Clouds
1:30 AM 42.8 °F 38.0 °F 42.8 °F 100% 29.86 in 6.2 mi WNW 8.1 mph - N/A   Mostly Cloudy
2:00 AM 42.8 °F 38.0 °F 42.8 °F 100% 29.86 in 6.2 mi WNW 8.1 mph - N/A   Mostly Cloudy
2:30 AM 42.8 °F 40.1 °F 42.8 °F 100% 29.89 in 6.2 mi NW 4.6 mph - N/A   Mostly Cloudy
3:00 AM 42.8 °F 39.3 °F 41.0 °F 93% 29.89 in 6.2 mi WNW 5.8 mph - N/A   Scattered Clouds
3:30 AM 42.8 °F 38.6 °F 41.0 °F 93% 29.92 in 6.2 mi West 6.9 mph - N/A   Scattered Clouds
4:00 AM 42.8 °F 39.3 °F 41.0 °F 93% 29.95 in 6.2 mi NW 5.8 mph - N/A   Mostly Cloudy
4:30 AM 42.8 °F - 42.8 °F 100% 29.95 in - North - - N/A   Mostly Cloudy
5:00 AM 42.8 °F 40.1 °F 41.0 °F 93% 29.95 in 6.2 mi WNW 4.6 mph - N/A   Scattered Clouds
5:30 AM 42.8 °F 38.6 °F 41.0 °F 93% 29.98 in 6.2 mi West 6.9 mph - N/A   Mostly Cloudy
6:00 AM 44 °F - 42 °F 89% 30.02 in 19 mi WNW 4.5 mph - -   Mostly Cloudy
6:00 AM 42.8 °F 40.1 °F 42.8 °F 100% 29.98 in 6.2 mi WNW 4.6 mph - N/A   Mostly Cloudy
6:30 AM 42.8 °F 41.1 °F 41.0 °F 93% 29.98 in 6.2 mi WNW 3.5 mph - N/A   Mostly Cloudy
7:00 AM 44.6 °F 43.1 °F 42.8 °F 93% 30.01 in 6.2 mi NW 3.5 mph - N/A   Mostly Cloudy
7:30 AM 44.6 °F 43.1 °F 42.8 °F 93% 30.04 in 6.2 mi WNW 3.5 mph - N/A   Mostly Cloudy
8:00 AM 42.8 °F 41.1 °F 41.0 °F 93% 30.04 in 6.2 mi WSW 3.5 mph - N/A   Partly Cloudy
8:30 AM 42.8 °F 41.1 °F 42.8 °F 100% 30.06 in 6.2 mi SW 3.5 mph - N/A   Partly Cloudy
9:00 AM 44.6 °F - 42.8 °F 93% 30.06 in 6.2 mi SW 1.2 mph - N/A   Scattered Clouds
9:30 AM 44.6 °F - 42.8 °F 93% 30.06 in 6.2 mi SE 2.3 mph - N/A   Scattered Clouds
10:00 AM 46.4 °F 45.2 °F 44.6 °F 93% 30.06 in 6.2 mi South 3.5 mph - N/A   Mostly Cloudy
10:30 AM 46.4 °F 44.3 °F 44.6 °F 93% 30.06 in 6.2 mi South 4.6 mph - N/A Rain Light Rain
11:00 AM 44.6 °F 43.1 °F 44.6 °F 100% 30.09 in 5.6 mi South 3.5 mph - N/A Rain Light Rain
11:30 AM 44.6 °F 41.4 °F 44.6 °F 100% 30.09 in 5.6 mi SSE 5.8 mph - N/A Rain Light Rain
12:00 PM 45 °F - 45 °F 98% 30.10 in 6 mi SSE 8.9 mph - - Rain Rain
12:00 PM 44.6 °F 40.2 °F 44.6 °F 100% 30.06 in 5.6 mi SSE 8.1 mph - N/A Rain Light Rain
12:30 PM 46.4 °F 41.9 °F 44.6 °F 93% 30.06 in 6.2 mi SE 9.2 mph - N/A Rain Rain
1:00 PM 46.4 °F 41.1 °F 46.4 °F 100% 30.06 in 6.2 mi SSE 11.5 mph - N/A Rain Light Rain
1:30 PM 46.4 °F 40.4 °F 46.4 °F 100% 30.06 in 6.2 mi SSE 13.8 mph - N/A Rain Light Rain
2:00 PM 46.4 °F 40.7 °F 46.4 °F 100% 30.04 in 3.1 mi SSE 12.7 mph - N/A Rain Light Rain
2:30 PM 48.2 °F - 48.2 °F 100% 30.04 in 3.1 mi SSE 12.7 mph - N/A Rain Light Rain
3:00 PM 48.2 °F - 48.2 °F 100% 30.04 in 0.7 mi SSE 15.0 mph - N/A Rain Light Rain
3:30 PM 48.2 °F - 48.2 °F 100% 30.01 in 0.7 mi SE 13.8 mph - N/A Rain Light Rain
4:00 PM 50.0 °F - 50.0 °F 100% 30.01 in 0.7 mi SSE 12.7 mph - N/A Rain Light Rain
4:30 PM 50.0 °F - 50.0 °F 100% 29.98 in 1.0 mi SSE 13.8 mph - N/A Rain Rain
5:00 PM 51.8 °F - 51.8 °F 100% 29.98 in 1.0 mi South 10.4 mph - N/A Rain Rain
5:30 PM 51.8 °F - 51.8 °F 100% 29.98 in 0.6 mi South 9.2 mph - N/A Rain Rain
6:00 PM 53 °F - 53 °F 99% 29.99 in 1 mi South 8.9 mph - - Rain Rain
6:00 PM 53.6 °F - 53.6 °F 100% 29.98 in 1.2 mi South 8.1 mph - N/A Rain Rain
6:30 PM 53.6 °F - 53.6 °F 100% 29.98 in 1.2 mi SSW 9.2 mph - N/A Rain Light Rain
7:00 PM 53.6 °F - 53.6 °F 100% 29.95 in 1.2 mi SSW 10.4 mph - N/A Rain Light Rain
7:30 PM 53.6 °F - 53.6 °F 100% 29.98 in 1.2 mi SW 11.5 mph - N/A Rain Light Rain
8:00 PM 53.6 °F - 53.6 °F 100% 29.95 in 1.6 mi SW 12.7 mph - N/A Rain Light Rain
8:30 PM 53.6 °F - 53.6 °F 100% 29.95 in 4.3 mi SW 12.7 mph - N/A   Light Drizzle
9:00 PM 53.6 °F - 53.6 °F 100% 29.95 in 5.6 mi SW 10.4 mph - N/A Rain Light Rain
9:30 PM 53.6 °F - 53.6 °F 100% 29.95 in 1.9 mi SW 8.1 mph - N/A   Light Drizzle
10:00 PM 53.6 °F - 53.6 °F 100% 29.95 in 6.2 mi SW 8.1 mph - N/A   Light Drizzle
10:30 PM 53.6 °F - 53.6 °F 100% 29.95 in 6.2 mi SW 8.1 mph - N/A   Light Drizzle
11:00 PM 53.6 °F - 53.6 °F 100% 29.95 in 6.2 mi SW 10.4 mph - N/A   Light Drizzle
11:30 PM 53.6 °F - 53.6 °F 100% 29.95 in 6.2 mi SW 10.4 mph - N/A   Mostly Cloudy